Location: Newark
(46.7000°N, 60.6000°W)
Time: 16:16:55
(UTC+00:00)

Courier 1B Rocket - All Passes

Search period start: 21 October 2020 00:00
Search period end: 31 October 2020 00:00
Orbit: 920 x 1202 km, 28.2° (Epoch: 20 October)

Date Brightness Start Highest point End Pass type
(mag) Time Alt. Az. Time Alt. Az. Time Alt. Az.
21 Oct - 01:28:09 10° SSW 01:31:55 14° SSE 01:35:43 10° SE night (unlit)
21 Oct - 03:19:11 10° SW 03:24:18 19° S 03:29:22 10° SE night (unlit)
21 Oct - 05:12:35 10° SW 05:16:41 15° SSW 05:20:43 10° SSE night (unlit)
22 Oct - 00:29:01 10° S 00:31:08 11° SSE 00:33:17 10° SE visible
22 Oct - 02:18:29 10° SSW 02:23:26 18° S 02:28:23 10° SE night (unlit)
22 Oct - 04:11:06 10° SW 04:15:51 17° S 04:20:34 10° SSE night (unlit)
23 Oct - 01:18:07 10° SSW 01:22:35 17° SSE 01:27:08 10° SE visible
23 Oct - 03:09:58 10° SW 03:15:00 19° S 03:20:02 10° SE night (unlit)
23 Oct - 05:04:21 10° SW 05:07:20 13° SSW 05:10:18 10° S night (unlit)
24 Oct - 00:18:13 10° SSW 00:21:47 14° SSE 00:25:26 10° SE visible
24 Oct - 02:09:06 10° SW 02:14:08 19° S 02:19:14 10° SE night (unlit)
24 Oct - 04:02:24 10° SW 04:06:32 15° SSW 04:10:40 10° SSE night (unlit)
24 Oct - 23:19:23 10° S 23:21:03 11° SSE 23:22:45 10° SE visible
25 Oct - 01:08:31 10° SSW 01:13:18 18° S 01:18:10 10° SE visible
25 Oct - 03:01:01 10° SW 03:05:43 17° S 03:10:26 10° SSE night (unlit)
26 Oct - 00:08:16 10° SSW 00:12:29 16° SSE 00:16:49 10° SE visible
26 Oct - 01:59:59 10° SW 02:04:52 18° S 02:09:50 10° SE night (unlit)
26 Oct - 03:54:16 10° SW 03:57:13 12° SSW 04:00:10 10° S night (unlit)
26 Oct - 23:08:31 10° S 23:11:44 13° SSE 23:15:02 10° SE visible
27 Oct - 00:59:13 10° SW 01:04:01 18° S 01:08:57 10° SE visible
27 Oct - 02:52:25 10° SW 02:56:24 15° SSW 03:00:27 10° SSE night (unlit)
27 Oct - 22:10:28 10° SSE 22:11:03 10° SSE 22:11:38 10° SSE visible
27 Oct - 23:58:45 10° SSW 00:03:13 17° S 00:07:49 10° SE visible
28 Oct - 01:51:08 10° SW 01:55:36 17° S 02:00:08 10° SSE visible
28 Oct - 22:58:37 10° SSW 23:02:27 15° SSE 23:06:25 10° SE visible
29 Oct - 00:50:12 10° SW 00:54:46 18° S 00:59:29 10° SE visible
29 Oct - 02:44:29 10° SW 02:47:05 12° SSW 02:49:45 10° S night (unlit)
29 Oct - 21:59:01 10° S 22:01:45 12° SSE 22:04:33 10° SE visible
29 Oct - 23:49:32 10° SW 23:53:58 17° S 23:58:34 10° SE visible
30 Oct - 01:42:39 10° SW 01:46:19 14° SSW 01:50:02 10° SSE visible
30 Oct - 22:49:09 10° SSW 22:53:13 16° S 22:57:25 10° SE visible
